Weather History for CWWE - March, 2013

Change the Weather History Date:

Friday, March 29, 2013

  Actual Average Record
Temperature  
Mean Temperature 42 °F -  
Max Temperature 55 °F - - ()
Min Temperature 30 °F - - ()
Degree Days  
Heating Degree Days 22    
Moisture  
Dew Point 29 °F    
Average Humidity 68    
Maximum Humidity 95    
Minimum Humidity 23    
Precipitation  
Precipitation 0.00 in - - ()
Sea Level Pressure  
Sea Level Pressure 29.88 in    
Wind  
Wind Speed 7 mph ()    
Max Wind Speed 13 mph    
Max Gust Speed 23 mph    
T = Trace of Precipitation, MM = Missing Value Source: Averaged Metar Reports

Daily Weather History Graph

Daily Weather History Graph

Search for Another Location

Airport or City:

Trip Planner

Search our weather history database for the weather conditions in past years. The results will help you decide how hot, cold, wet, or windy it might be!

Date:

Astronomy

Mar. 29, 2013 Rise Set
Actual Time 7:05 AM ADT 7:42 PM ADT
Civil Twilight 6:36 AM ADT 8:11 PM ADT
Nautical Twilight 6:01 AM ADT 8:45 PM ADT
Astronomical Twilight 5:26 AM ADT 9:21 PM ADT
Moon 10:44 PM ADT (3/29) 8:05 AM ADT (3/29)
Length of Visible Light 13h 35m
Length of Day
12h 37m
Waning Gibbous, 94% of the Moon is Illuminated
Mar 29
Waning Gibbous
Apr 3
Last Quarter
Apr 10
New
Apr 18
First Quarter
Apr 25
Full

Hourly Weather History & Observations

Time (ADT) Temp. Windchill Dew Point Humidity Pressure Visibility Wind Dir Wind Speed Gust Speed Precip Events Conditions
12:00 AM 32 °F - 25 °F 66% 29.88 in - NW 6.9 mph - -  
12:00 AM 31.8 °F 25.4 °F 25.0 °F 76% 29.88 in - NW 6.9 mph - N/A   Unknown
1:00 AM 33.3 °F 26.4 °F 24.8 °F 71% 29.89 in - NW 8.1 mph - N/A   Unknown
2:00 AM 33.6 °F 26.8 °F 25.3 °F 72% 29.89 in - WNW 8.1 mph - N/A   Unknown
3:00 AM 33 °F - 26 °F 65% 29.89 in - WNW 9.2 mph - -  
3:00 AM 32.9 °F 25.3 °F 25.5 °F 74% 29.89 in - WNW 9.2 mph - N/A   Unknown
4:00 AM 31.8 °F 24.6 °F 25.3 °F 77% 29.88 in - WNW 8.1 mph - N/A   Unknown
5:00 AM 33.8 °F 27.0 °F 27.0 °F 76% 29.87 in - WNW 8.1 mph - N/A   Unknown
6:00 AM 34 °F - 27 °F 66% 29.86 in - WNW 6.9 mph - -  
6:00 AM 34.2 °F 28.2 °F 27.0 °F 75% 29.86 in - WNW 6.9 mph - N/A   Unknown
7:00 AM 31.5 °F 24.2 °F 26.6 °F 82% 29.86 in - WNW 8.1 mph - N/A   Unknown
8:00 AM 36.0 °F 29.0 °F 28.2 °F 73% 29.87 in - WNW 9.2 mph - N/A   Unknown
9:00 AM 41 °F - 32 °F 61% 29.88 in - WNW 9.2 mph - -  
9:00 AM 40.6 °F 34.8 °F 31.8 °F 71% 29.88 in - WNW 9.2 mph - N/A   Unknown
10:00 AM 45.0 °F 41.2 °F 31.1 °F 58% 29.88 in - NW 6.9 mph - N/A   Unknown
11:00 AM 49.5 °F - 25.2 °F 39% 29.87 in - NNW 9.2 mph - N/A   Unknown
12:00 PM 51 °F - 24 °F 23% 29.87 in - NNW 12.7 mph - -  
12:00 PM 51.3 °F - 24.3 °F 35% 29.87 in - NNW 12.7 mph 23.0 mph N/A   Unknown
1:00 PM 50.4 °F - 22.6 °F 34% 29.86 in - North 11.5 mph 19.6 mph N/A   Unknown
2:00 PM 53.4 °F - 23.5 °F 31% 29.85 in - North 11.5 mph 20.7 mph N/A   Unknown
3:00 PM 46 °F - 33 °F 49% 29.85 in - ESE 6.9 mph - -  
3:00 PM 45.5 °F 41.8 °F 33.1 °F 62% 29.85 in - ESE 6.9 mph - N/A   Unknown
4:00 PM 41.9 °F 35.0 °F 33.8 °F 73% 29.85 in - SE 12.7 mph - N/A   Unknown
5:00 PM 42.1 °F 37.1 °F 34.7 °F 75% 29.85 in - SE 8.1 mph - N/A   Unknown
6:00 PM 40 °F - 34 °F 72% 29.86 in - ESE 4.6 mph - -  
6:00 PM 40.5 °F 37.3 °F 34.2 °F 78% 29.86 in - ESE 4.6 mph - N/A   Unknown
7:00 PM 38.7 °F - 34.7 °F 86% 29.88 in - South 2.3 mph - N/A   Unknown
8:00 PM 37.9 °F - 34.5 °F 87% 29.89 in - South 2.3 mph - N/A   Unknown
9:00 PM 38 °F - 35 °F 82% 29.91 in - SW 3.5 mph - -  
9:00 PM 37.8 °F 35.3 °F 34.5 °F 88% 29.91 in - SW 3.5 mph - N/A   Unknown
10:00 PM 35.6 °F 32.8 °F 33.6 °F 92% 29.93 in - SW 3.5 mph - N/A   Unknown
11:00 PM 34.5 °F 31.6 °F 33.3 °F 95% 29.93 in - WSW 3.5 mph - N/A   Unknown